Location: Breitenfeld
(46.8500°N, 15.6333°E)
Time: 16:46:26
(UTC+00:00)

STARLINK-1241 - Pass Details

Date: 09 April 2020
Orbit: 549 x 551 km, 53.0° (Epoch: 26 May)

Event Time Altitude Azimuth Distance (km) Brightness Sun altitude
Rises 18:16:17 0° 294° (WNW) 2,733 9.7 -7.1°
Reaches altitude 10° 18:18:37 10° 302° (WNW) 1,838 7.9 -7.5°
Maximum altitude 18:22:36 42° 14° (NNE) 802 4.5 -8.1°
Drops below altitude 10° 18:26:35 10° 86° (E) 1,835 5.7 -8.7°
Enters shadow 18:26:44 - 87° (E) 1,893 5.8 -8.8°
